This demonstration page uses our WeatherBlox Daily Observations layout. Learn more.

Left ArrowRight Arrow

47.50024, -111.30081

Hourly Observations for December 1, 2022

Temp ( °F °C ) Dew Point ( °F °C ) Humidity (%) Winds ( mph kmh ) Pressure ( in mb ) Visibility ( mi km ) Precip ( " mm )
12:53 am 00:53 Mostly Clear 8 -13.3 6 -14.4 91 91 N 9 15 29.75 1007 10 16 0.00 0.00
1:26 am 01:26 Mostly Clear 8 -13.3 5 -15 87 87 NNE 8 13 29.90 1012 10 16 0.00 0.00
1:53 am 01:53 Mostly Clear 8 -13.3 5 -15 87 87 NNE 5 7 29.76 1008 10 16 0.00 0.00
2:15 am 02:15 Mostly Cloudy 8 -13.3 5 -15 87 87 N 7 11 29.92 1013 10 16 0.00 0.00
2:53 am 02:53 Cloudy 9 -12.8 6 -14.4 88 88 NNW 6 9 29.77 1008 9 14 0.00 0.00
3:53 am 03:53 Cloudy 8 -13.3 5 -15 87 87 NNW 9 15 29.78 1009 7 11 0.00 0.00
4:09 am 04:09 Cloudy 8 -13.3 4 -15.6 83 83 N 9 15 29.92 1013 9 14 0.00 0.00
4:25 am 04:25 Cloudy 8 -13.3 5 -15 87 87 N 9 15 29.92 1013 7 11 0.00 0.00
4:53 am 04:53 Cloudy 7 -13.9 3 -16.1 83 83 N 9 15 29.78 1008 10 16 0.00 0.00
5:15 am 05:15 Cloudy with Mist and Fog 6 -14.4 3 -16.1 87 87 NNW 13 20 29.95 1014 6 10 0.00 0.00
5:53 am 05:53 Cloudy 5 -15 1 -17.2 83 83 NNW 10 17 29.78 1008 10 16 0.00 0.00
6:30 am 06:30 Cloudy 5 -15 1 -17.2 83 83 NNW 9 15 29.94 1014 10 16 0.00 0.00
6:44 am 06:44 Cloudy 5 -15 1 -17.2 83 83 NNW 9 15 29.95 1014 10 16 0.00 0.00
6:53 am 06:53 Cloudy 5 -15 1 -17.2 83 83 NNW 9 15 29.77 1008 10 16 0.00 0.00
7:10 am 07:10 Cloudy 5 -15 1 -17.2 83 83 N 8 13 29.94 1014 10 16 0.00 0.00
7:49 am 07:49 Cloudy 5 -15 1 -17 85 85 N 8 13 29.94 1014 10 16 0.00 0.00
7:53 am 07:53 Cloudy 5 -15 1 -17.2 83 83 NNW 9 15 29.77 1008 10 16 0.00 0.00
8:53 am 08:53 Cloudy 4 -15.6 0 -17.8 83 83 N 8 13 29.78 1008 10 16 0.00 0.00
9:53 am 09:53 Cloudy 5 -15 0 -17.8 79 79 Calm 29.77 1008 10 16 0.00 0.00
10:53 am 10:53 Cloudy 6 -14.4 1 -17.2 79 79 N 6 9 29.77 1008 10 16 0.00 0.00
11:30 am 11:30 Cloudy 6 -14.4 1 -17.2 79 79 N 8 13 29.94 1014 10 16 0.00 0.00
11:53 am 11:53 Cloudy 6 -14.4 1 -17.2 79 79 NNW 3 6 29.82 1010 10 16 0.00 0.00
12:00 pm 12:00 Cloudy 7 -13.9 1 -17.2 76 76 N 3 6 29.92 1013 10 16 0.00 0.00
12:13 pm 12:13 Cloudy 7 -13.9 1 -17.2 76 76 VRB 3 6 29.91 1013 10 16 0.00 0.00
12:44 pm 12:44 Cloudy 7 -13.9 1 -17.2 76 76 N 8 13 29.90 1012 10 16 0.00 0.00
12:53 pm 12:53 Cloudy 6 -14.4 1 -17.2 79 79 NNW 5 7 29.80 1009 10 16 0.00 0.00
1:53 pm 13:53 Cloudy 6 -14.4 2 -16.7 83 83 N 7 11 29.79 1009 10 16 0.00 0.00
2:36 pm 14:36 Cloudy with Light Snow 5 -15 1 -17.2 83 83 N 8 13 29.91 1013 2 3 0.01 0.25
2:40 pm 14:40 Cloudy with Light Snow 5 -15 1 -17.2 83 83 N 8 13 29.91 1013 1 1 0.01 0.25
2:50 pm 14:50 Partly Cloudy with Snow 5 -15 1 -17 85 85 N 8 13 29.91 1013 0 0 0.02 0.51
2:53 pm 14:53 Partly Cloudy with Snow 5 -15 2 -16.7 87 87 N 8 13 29.80 1009 0 0 0.02 0.51
3:00 pm 15:00 Partly Cloudy with Snow 5 -15 2 -16.7 87 87 N 8 13 29.91 1013 1 1 0.01 0.25
3:11 pm 15:11 Partly Cloudy with Snow 5 -15 2 -16.7 87 87 N 8 13 29.91 1013 1 1 0.02 0.51
3:19 pm 15:19 Partly Cloudy with Snow 4 -15.6 1 -17.2 87 87 N 8 13 29.92 1013 1 1 0.03 0.76
3:53 pm 15:53 Partly Cloudy with Isolated Snow Showers 4 -15.6 1 -17.2 87 87 N 8 13 29.81 1010 1 1 0.05 1.27
4:31 pm 16:31 Cloudy with Light Snow 4 -15.6 1 -17.2 87 87 N 5 7 29.94 1014 1 1 0.02 0.51
4:38 pm 16:38 Partly Cloudy with Isolated Snow Showers 4 -15.6 1 -17.2 87 87 N 5 7 29.94 1014 1 1 0.03 0.76
4:53 pm 16:53 Partly Cloudy with Isolated Snow Showers 4 -15.6 1 -17.2 87 87 N 6 9 29.82 1010 1 1 0.04 1.02
4:59 pm 16:59 Cloudy with Light Snow 4 -15.6 1 -17.2 87 87 N 5 7 29.94 1014 1 2 0.01 0.13
5:53 pm 17:53 Cloudy with Light Snow 4 -15.6 1 -17.2 87 87 NNE 6 9 29.83 1010 2 3 0.01 0.25
6:08 pm 18:08 Cloudy with Light Snow 4 -15.6 1 -17.2 87 87 N 3 6 29.98 1015 1 2 0.01 0.13
6:37 pm 18:37 Cloudy with Light Snow 4 -15.6 2 -16.7 91 91 N 3 6 29.98 1015 1 2 0.01 0.25
6:53 pm 18:53 Cloudy with Light Snow 4 -15.6 2 -16.7 91 91 NNW 5 7 29.87 1012 4 6 0.01 0.25
7:53 pm 19:53 Cloudy 3 -16.1 0 -17.8 87 87 NNW 5 7 29.88 1012 10 16 0.01 0.13
8:18 pm 20:18 Cloudy 3 -16.1 0 -17.8 87 87 N 7 11 30.00 1016 10 16 0.00 0.00
8:44 pm 20:44 Mostly Cloudy 0 -17.8 -3 -19.4 87 87 NNE 5 7 30.02 1017 10 16 0.00 0.00
8:53 pm 20:53 Mostly Cloudy -1 -18.3 -5 -20.6 82 82 NE 8 13 29.87 1012 10 16 0.00 0.00
9:05 pm 21:05 Mostly Cloudy -2 -18.9 -5 -20.6 86 86 N 6 9 30.04 1017 10 16 0.00 0.00
9:15 pm 21:15 Mostly Cloudy 0 -17.8 -3 -19.4 87 87 N 6 9 30.03 1017 10 16 0.00 0.00
9:53 pm 21:53 Cloudy 2 -16.7 -2 -18.9 83 83 N 8 13 29.91 1013 10 16 0.00 0.00
10:00 pm 22:00 Cloudy 2 -16.7 -2 -18.9 83 83 N 8 13 30.04 1017 10 16 0.00 0.00
10:53 pm 22:53 Mostly Cloudy -1 -18.3 -5 -20.6 82 82 N 6 9 29.95 1014 10 16 0.00 0.00
11:12 pm 23:12 Mostly Cloudy -2 -18.9 -6 -21.1 83 83 N 6 9 30.11 1020 10 16 0.00 0.00
11:53 pm 23:53 Cloudy -3 -19.4 -6 -21.1 86 86 NNW 7 11 29.97 1015 10 16 0.00 0.00

Powered by AerisWeather